Regional Weather Roundup
Issued by NWS

Home | Current Version | Previous Version | Text Only | Print | Product List | Glossary On
Versions: 1 2 3 4 5 6 7 8 9 10 11 12 13 14 15 16 17 18 19 20 21 22 23 24 25 26 27 28 29 30 31 32 33 34 35 36 37 38 39 40 41 42 43 44 45 46 47 48 49 50
000
ASUS44 KJAN 130810
RWRMS

MISSISSIPPI HOURLY WEATHER ROUNDUP
NATIONAL WEATHER SERVICE JACKSON MS
200 AM CST WED DEC 13 2017

NOTE: "FAIR: INDICATES FEW OR NO CLOUDS BELOW 12,000 FEET WITH NO
SIGNIFICANT WEATHER AND/OR OBSTRUCTIONS TO VISIBILITY.

MSZ001>002-007>008-010>013-018>021-025>028-034>036-130900-
NORTHWEST MISSISSIPPI

CITY           SKY/WX    TMP DP  RH WIND       PRES   REMARKS
BATESVILLE     FAIR      25  23  91 CALM      30.14F
CLARKSDALE     PTCLDY    30  27  86 S5        30.15S WCI  25
CLEVELAND      FAIR      31  26  83 CALM      30.15F
GREENWOOD      CLOUDY    28  26  92 CALM      30.15F
GREENVILLE     PTCLDY    29  21  72 CALM      30.15F
OXFORD         FAIR      25  21  86 CALM      30.13F
TUNICA           N/A    N/A N/A N/A S3        30.14S
WINONA         FAIR      26  25  99 CALM      30.14F
$$

MSZ003>006-009-014>017-022>024-029>033-037>039-130900-
NORTHEAST MISSISSIPPI

CITY           SKY/WX    TMP DP  RH WIND       PRES   REMARKS
ABERDEEN       FAIR      25  25 100 CALM      30.15S
COLUMBUS AFB   PTCLDY    26  23  91 CALM      30.13F
CORINTH        FAIR      25  19  80 CALM      30.12S
GOLDN TRIANGLE   N/A    N/A N/A N/A MISG        N/A
STARKVILLE     FAIR      28  27  93 CALM      30.15F
TUPELO         PTCLDY    29  22  75 CALM      30.13S
$$

MSZ040-058-130900-
CENTRAL MISSISSIPPI

CITY           SKY/WX    TMP DP  RH WIND       PRES   REMARKS
JACKSON INTL   CLOUDY    31  27  85 CALM      30.14S
JACKSON HAWKNS PTCLDY    32  28  85 CALM      30.15S
MADISON        FAIR      28  28 100 CALM      30.15S
MERIDIAN KEY   CLEAR     30  28  92 CALM      30.14F
MERIDIAN NAS   CLEAR     31  28  89 CALM      30.14F
RAYMOND        FAIR      28  28 100 CALM      30.15S
VICKSBURG VKS  SUNNY     30  28  93 CALM      30.17S
$$

MSZ059>079-130900-
SOUTH MISSISSIPPI

CITY           SKY/WX    TMP DP  RH WIND       PRES   REMARKS
HATTIESBURG    CLEAR     30  29  96 CALM      30.17R
LAUREL         FAIR      31  31 100 CALM      30.16S
MCCOMB         CLOUDY    32  27  81 CALM      30.16R
NATCHEZ        CLOUDY    29  27  92 CALM      30.17S
PINE BELT      CLEAR     34  27  75 N3        30.16S
$$

MSZ080>082-130900-
COASTAL MISSISSIPPI

CITY           SKY/WX    TMP DP  RH WIND       PRES   REMARKS
BILOXI         CLEAR     39  30  70 N6        30.15S WCI  35
PASCAGOULA     CLEAR     32  28  85 CALM      30.16R
GULFPORT       CLEAR     36  33  89 CALM      30.16R
$$

LAZ007>009-015>016-023>026-130900-
NORTHEAST LOUISIANA

CITY           SKY/WX    TMP DP  RH WIND       PRES   REMARKS
BASTROP        FAIR      29  28  92 CALM      30.17R
TALLULAH/VBURG CLOUDY    26  25  96 CALM      30.17S
VIDALIA          N/A    N/A N/A N/A MISG      30.17S
$$



USA.gov is the U.S. government's official web portal to all federal, state and local government web resources and services.